Weather History for KSJN - June, 2013

Change the Weather History Date:

Wednesday, June 19, 2013

  Actual Average (KSOW) Record (KSOW)
Temperature  
Mean Temperature 66 °F -  
Max Temperature 87 °F 80 °F 95 °F (1989)
Min Temperature 45 °F 62 °F 37 °F (1975)
Cooling Degree Days 1    
Growing Degree Days 16 (Base 50)    
Moisture  
Dew Point 11 °F    
Average Humidity 11    
Maximum Humidity 33    
Minimum Humidity 4    
Precipitation  
Precipitation 0.00 in - - ()
Sea Level Pressure  
Sea Level Pressure 29.73 in    
Wind  
Wind Speed 9 mph (SSW)    
Max Wind Speed 25 mph    
Max Gust Speed 34 mph    
Visibility 10 miles    
Events      
Averages and records for this station are not official NWS values.
T = Trace of Precipitation, MM = Missing Value Source: NWS Daily Summary

Daily Weather History Graph

Daily Weather History Graph

Search for Another Location

Airport or City:

Trip Planner

Search our weather history database for the weather conditions in past years. The results will help you decide how hot, cold, wet, or windy it might be!

Date:

Astronomy

Jun. 19, 2013 Rise Set
Actual Time 5:04 AM MST 7:33 PM MST
Civil Twilight 4:35 AM MST 8:02 PM MST
Nautical Twilight 3:59 AM MST 8:38 PM MST
Astronomical Twilight 3:19 AM MST 9:18 PM MST
Moon 3:36 PM MST (6/19) 1:43 AM MST (6/19)
Length of Visible Light 15h 27m
Length of Day
14h 28m
Waxing Gibbous, 81% of the Moon is Illuminated
Jun 19
Waxing Gibbous
Jun 23
Full
Jun 29
Last Quarter
Jul 8
New
Jul 15
First Quarter

Hourly Weather History & Observations

Time (MST) Temp. Dew Point Humidity Pressure Visibility Wind Dir Wind Speed Gust Speed Precip Events Conditions
12:54 AM 61.0 °F 12.0 °F 15% 29.72 in 10.0 mi SSE 6.9 mph - N/A   Clear
1:54 AM 57.0 °F 15.1 °F 19% 29.72 in 10.0 mi South 3.5 mph - N/A   Clear
2:54 AM 54.0 °F 14.0 °F 21% 29.73 in 10.0 mi SSE 5.8 mph - N/A   Clear
3:54 AM 52.0 °F 15.1 °F 23% 29.73 in 10.0 mi SE 5.8 mph - N/A   Clear
4:54 AM 45.0 °F 17.1 °F 33% 29.76 in 10.0 mi Calm Calm - N/A   Clear
5:54 AM 48.9 °F 18.0 °F 29% 29.77 in 10.0 mi South 3.5 mph - N/A   Clear
6:54 AM 57.9 °F 17.1 °F 20% 29.76 in 10.0 mi Calm Calm - N/A   Clear
7:54 AM 66.9 °F 16.0 °F 14% 29.76 in 10.0 mi Calm Calm - N/A   Clear
8:54 AM 78.1 °F 12.0 °F 8% 29.73 in 10.0 mi Calm Calm - N/A   Clear
9:39 AM 84.2 °F 10.4 °F 6% 30.03 in 10.0 mi SW 18.4 mph 25.3 mph N/A   Clear
9:54 AM 86.0 °F 10.0 °F 6% 29.69 in 10.0 mi SW 16.1 mph 25.3 mph N/A   Clear
10:54 AM 89.1 °F 5.0 °F 4% 29.69 in 10.0 mi WSW 16.1 mph 28.8 mph N/A   Clear
11:54 AM 89.1 °F 3.9 °F 4% 29.70 in 10.0 mi WSW 23.0 mph 33.4 mph N/A   Clear
12:54 PM 91.0 °F 6.1 °F 4% 29.68 in 10.0 mi WSW 19.6 mph 31.1 mph N/A   Clear
1:54 PM 91.9 °F 10.9 °F 5% 29.68 in 10.0 mi SW 21.9 mph 34.5 mph N/A   Clear
2:54 PM 91.0 °F 8.1 °F 4% 29.68 in 10.0 mi SW 25.3 mph 33.4 mph N/A   Clear
3:54 PM 90.0 °F 7.0 °F 4% 29.68 in 10.0 mi SSW 13.8 mph 31.1 mph N/A   Clear
4:54 PM 90.0 °F 9.0 °F 5% 29.69 in 10.0 mi SSW 17.3 mph 28.8 mph N/A   Clear
5:54 PM 87.1 °F 10.9 °F 6% 29.70 in 10.0 mi SSW 18.4 mph 25.3 mph N/A   Clear
6:54 PM 84.0 °F 10.0 °F 6% 29.69 in 10.0 mi SW 12.7 mph 21.9 mph N/A   Clear
7:54 PM 77.0 °F 6.1 °F 7% 29.70 in 10.0 mi SW 8.1 mph - N/A   Clear
8:54 PM 73.0 °F 8.1 °F 8% 29.69 in 10.0 mi SSW 10.4 mph - N/A   Clear
9:54 PM 64.9 °F 9.0 °F 11% 29.71 in 10.0 mi SSW 6.9 mph - N/A   Clear
10:54 PM 63.0 °F 10.9 °F 13% 29.72 in 10.0 mi SSW 6.9 mph - N/A   Clear
11:54 PM 59.0 °F 10.9 °F 15% 29.74 in 10.0 mi South 5.8 mph - N/A   Clear